www.pogodaiklimat.ru

ПОГОДА в Элиме, AK

  • Прогноз погоды в Элиме
  • Монитор погоды в Элиме
  • Климат в Элиме

АРХИВ ПОГОДЫ в Элиме

Время (UTC), дата Ветер
(напр.,м/с)
 
Видим.   Явления Облачность Т
(С)
Тd
(С)
f
(%)
Тe
(С)
Тes
(С)
Комфортность

P
(гПа)

Po
(гПа)
Тmin
(С)
Tmax
(С)
R
(мм)
SD
(см)
06:56 24.06 нст  16 км    10/10 390 м  +12.2  +10.0  86  +11  +11    1021.8  1015.6         
07:06 24.06 СВ  16 км    10/10 390 м  +12.0  +9.0  82  +10  +10      1016.0         
07:56 24.06 С  16 км    10/10 390 м  +11.7  +8.9  83  +11  +11    1022.0  1016.0         
08:11 24.06 нст  16 км    8/8 390 м  +11.0  +9.0  87  +10  +10      1016.0         
08:56 24.06 С  16 км    10/10 450 м  +10.6  +8.9  89  +9  +9    1022.1  1016.0         
09:09 24.06 С  16 км    10/10 450 м  +11.0  +9.0  87  +9  +9      1016.0         
09:56 24.06 С  16 км    10/10 990 м  +10.6  +8.3  86  +8  +8    1022.1  1016.0         
10:29 24.06 С  16 км    10/10 480 м  +9.0  +7.0  87  +6  +6      1016.0         
10:56 24.06 С  16 км    10/10 420 м  +9.4  +7.2  86  +7  +7    1022.2  1016.0  +9.4  +13.3     
11:06 24.06 С  16 км    10/10 420 м  +9.0  +7.0  87  +6  +6      1016.0         
11:56 24.06 С  16 км    10/10 990 м  +9.4  +7.2  86  +7  +7    1022.0  1015.6         
12:29 24.06 С  16 км    10/10 570 м  +9.0  +7.0  87  +6  +6      1015.6         
12:41 24.06 С  16 км    10/10 570 м  +9.0  +7.0  87  +6  +6      1015.6         
12:56 24.06 С  16 км    10/10 570 м  +8.9  +6.7  86  +6  +6    1021.8  1015.6         
13:11 24.06 С  16 км    10/10 570 м  +9.0  +7.0  87  +6  +6      1015.6         
13:20 24.06 С  16 км    10/10 570 м  +9.0  +7.0  87  +6  +6      1015.6         
13:56 24.06 С  16 км    10/10 570 м  +8.9  +6.1  83  +6  +6    1021.6  1015.3         
14:56 24.06 С  16 км    10/10 660 м  +9.4  +6.1  80  +7  +7    1021.4  1015.3         
15:56 24.06 СВ  16 км    10/10 990 м  +9.4  +6.1  80  +7  +7    1021.3  1015.3         
16:56 24.06 СВ  16 км    10/10 690 м  +9.4  +5.6  77  +6  +6    1021.3  1015.3  +8.9  +9.4     
17:56 24.06 С  16 км    10/10 990 м  +10.0  +5.6  74  +7  +7    1021.2  1015.0         
18:56 24.06 СВ  16 км    10/10 990 м  +10.6  +6.1  74  +8  +8    1021.1  1015.0         
19:56 24.06 СВ  16 км    10/10 990 м  +11.1  +6.7  74  +8  +8    1021.1  1015.0         
20:56 24.06 СВ  16 км    10/10 990 м  +12.2  +7.2  71  +10  +10    1020.9  1014.6         
21:56 24.06 В  16 км    10/10 1050 м  +13.9  +7.8  67  +12  +12    1020.4  1014.3         
22:56 24.06 СВ  16 км    10/10 1050 м  +14.4  +7.8  65  +13  +13    1020.0  1013.9  +9.4  +14.4     
23:56 24.06 В  16 км    ясно  +15.0  +7.8  62  +14  +22    1019.3  1013.3         
00:56 25.06 С  16 км    5/5 1050 м  +16.1  +8.3  60  +15  +18    1018.7  1012.6         
01:56 25.06 СВ  16 км    2/2 1230 м  +17.2  +8.3  56  +17  +21    1018.1  1011.9         
02:56 25.06 СВ  16 км    ясно  +16.7  +7.8  56  +16  +21    1017.8  1011.9         
03:56 25.06 СВ  16 км    ясно  +16.7  +6.7  52  +16  +17    1017.5  1011.6         
04:56 25.06 С  16 км    ясно  +16.1  +6.1  51  +15  +16    1017.4  1011.3  +14.4  +17.2     
05:56 25.06 С  7
{9} 
16 км    8/8 1650 м  +15.0  +6.1  55  +13  +13    1017.4  1011.3         
06:56 25.06 С  16 км    10/10 1650 м  +13.9  +5.0  55  +12  +12    1017.6  1011.6         
07:56 25.06 С  16 км    10/10 1950 м  +12.8  +4.4  57  +11  +11    1017.5  1011.3         
08:56 25.06 С  16 км    8/8 1950 м  +12.2  +4.4  59  +10  +10    1017.2  1011.3         
09:56 25.06 С  16 км    ясно  +11.1  +3.9  61  +9  +9    1017.4  1011.3         
10:56 25.06 С  16 км    ясно  +10.6  +1.1  52  +8  +8    1017.5  1011.3  +10.6  +16.1     
11:56 25.06 С  16 км    10/0 2100 м
[средняя] 
+10.6  +0.6  50  +8  +8    1017.5  1011.6         
12:56 25.06 С  16 км    8/0 2100 м
[средняя] 
+11.1  +1.1  50  +9  +9    1017.1  1010.9         
13:56 25.06 С  16 км    8/8 1800 м  +12.2  +1.7  49  +10  +10    1017.1  1010.9         
14:56 25.06 С  16 км    5/5 1650 м  +12.2  +3.3  54  +10  +10    1017.2  1011.3         
15:56 25.06 С  16 км    ясно  +13.9  +3.9  51  +12  +12    1017.1  1010.9         
16:56 25.06 СВ  16 км    2/0 2100 м
[средняя] 
+14.4  +4.4  51  +13  +14    1017.2  1011.3  +10.6  +14.4     
17:56 25.06 СВ  16 км    5/5 1950 м  +15.0  +5.0  51  +13  +14    1017.4  1011.3         
18:18 25.06 СВ  16 км    8/8 30 м  +16.0  +6.0  51  +15  +16      1011.3         
18:56 25.06 СВ  16 км    ясно  +16.7  +6.1  50  +16  +20    1017.1  1010.9         
19:56 25.06 СВ  16 км    2/2 1650 м  +17.2  +6.7  50  +16  +19    1017.4  1011.3         

 

Местоположение метеостанции Elim Airport: широта 64.6150 долгота -162.2705 высота над уровнем моря 49 м.

В архиве по умолчанию представлена погода в Элиме за последние 1-2 суток. Обновление информации о фактической погоде в базе происходит ежечасно! Архивные данные за месяц целиком и за предыдущие месяцы Вы можете получить, выбрав интересующий диапазон дат из раскрывающегося списка и нажав кнопку "Ввод!".

Внимание! Архив погоды МЕТАР в базе сайта хранится не более 60 дней. Нет смысла пытаться выбрать более раннюю дату.

Внимание! Время в таблицах - всемирное. Для получения местного времени необходимо прибавить поправку, которая в Элиме равна -9 ч.

Ветер - указаны скорость ветра в м/с и направление, откуда дует ветер: С - северный, СВ - северо-восточный, В - восточный, ЮВ - юго-восточный, Ю - южный, ЮЗ - юго-западный, З - западный, СЗ - северо-западный.
Видимость - горизонтальная дальность видимости в метрах или километрах. При видимости от 1 до 10 км при отсутствии осадков обычно наблюдается дымка, при ухудшении видимости до 1 км и менее - туман. В сухую погоду видимость может ухудшаться дымом, пылью или мглою.
Атмосферные явления - указаны явления, наблюдавшиеся в указанный момент времени.
Облачность - указаны через наклонную черту верхняя и нижняя облачность в баллах и высота нижней границы облаков в метрах. Внимание: облачность, как и прочие метеорологические величины в США измеряются автоматическими метеостанциями. Указанные значения в баллах носят условный характер и показывают процент времени, в течение которого, в среднем, лазерный луч высотомера отражался от облаков обратно.
T - Температура воздуха - температура, измеренная на высоте 2 м над землей.
Td - Температура точки росы - температура, при понижении до которой содержащийся в воздухе водяной пар достигнет насыщения.
f - Относительная влажность воздуха - влажноcть воздуха, измеренная на высоте 2 м над землей.
Te - Эффективная температура - температура, которую ощущает одетый по сезону человек в тени. Характеристика душности погоды. При расчете учитывается влияние влажности воздуха и скорости ветра на теплоощущения человека.
Tes - Эффективная температура на солнце - температура, которую ощущает человек, с поправкой на солнечный нагрев. Характеристика знойности погоды. Зависит от высоты солнца над горизонтом, облачности и скорости ветра. Ночью, в пасмурную погоду, а также при ветре 12 м/с и более поправка равна нулю.
P - Атмосферное давление - приведенное к уровню моря атмосферное давление.
Po - Атмосферное давление - измеренное на уровне метеостанции атмосферное давление.
Tmin - Минимальная температура - минимум температуры воздуха на высоте 2 м над землей.
Tmax - Максимальная температура - максимум температуры воздуха на высоте 2 м над землей.
R - Количество осадков - Количество выпавших осадков за 3 или 6 часов, мм.
SD - Снежный покров - Высота снежного покрова, см.